Back to catalog

SL-8 R/B

AliveLEO
NORAD 4391·ROCKET BODY·🇷🇺 Russia

Launched Apr 25, 1970 from Plesetsk Cosmodrome

Loading…

Next Passes (next 24 hours)

TLE

FreshSource: Space-Track

Epoch: Sep 14, 2026, 03:28 UTC

1 04391U 70036J   26257.14489463  .00000015  00000-0  24017-3 0  9997
2 04391  74.0291 148.7153 0075605  59.0815  92.8318 12.34993949542018

Track SL-8 R/B in real time with AllMySat

Download on the App Store